Location: Excel
(51.3833°N, 110.5667°W)
Time: 19:31:59
(UTC+00:00)

Envisat - Pass Details

Date: 09 December 2021
Orbit: 764 x 766 km, 98.2° (Epoch: 26 January)

Event Time Altitude Azimuth Distance (km) Brightness Sun altitude
Rises 12:24:34 0° 15° (NNE) 3,247 6.4 -25.4°
Reaches altitude 10° 12:26:54 10° 18° (NNE) 2,316 5.6 -25.0°
Maximum altitude 12:32:00 73° 103° (ESE) 806 3.2 -24.2°
Drops below altitude 10° 12:37:04 10° 188° (S) 2,298 5.5 -23.4°
Sets 12:39:22 0° 191° (S) 3,219 6.2 -23.1°
